This demonstration page uses our WeatherBlox Daily Observations layout. Learn more.

40.92945, -100.16068

Hourly Observations for March 26, 2019

Temp ( °F °C ) Dew Point ( °F °C ) Humidity (%) Winds ( mph kmh ) Pressure ( in mb ) Visibility ( mi km ) Precip ( " mm )
12:15 am 00:15 Clear 41 4.8 38 3.5 91 91 ESE 5 7 30.36 1028 10 16.09344 0 0
12:35 am 00:35 Clear 40 4.4 38 3.2 92 92 ESE 6 9 30.36 1028 7 11.265408 0 0
12:55 am 00:55 Clear 40 4.3 38 3.2 93 93 SE 5 7 30.36 1028 7 11.265408 0 0
1:15 am 01:15 Clear 40 4.3 38 3.2 93 93 ESE 5 7 30.36 1028 7 11.265408 0 0
1:35 am 01:35 Clear 39 4.1 38 3.1 93 93 ESE 5 7 30.33 1027 7 11.265408 0 0
1:55 am 01:55 Clear 39 3.9 37 3 94 94 SE 5 7 30.33 1027 7 11.265408 0 0
2:15 am 02:15 Clear with Mist and Fog 38 3.6 37 2.7 94 94 ESE 6 9 30.33 1027 5 8.04672 0 0
2:35 am 02:35 Clear 38 3.6 37 2.7 94 94 SE 6 9 30.33 1027 7 11.265408 0 0
2:55 am 02:55 Clear with Mist and Fog 38 3.3 37 2.5 95 95 SE 5 7 30.33 1027 5 8.04672 0 0
3:15 am 03:15 Clear 38 3.5 37 2.7 95 95 SSE 3 6 30.33 1027 7 11.265408 0 0
3:35 am 03:35 Clear with Mist and Fog 37 2.6 35 1.7 94 94 SE 3 6 30.36 1028 3 4.828032 0 0
3:55 am 03:55 Clear with Mist and Fog 37 2.6 35 1.9 95 95 Calm 30.36 1028 2.5 4.02336 0 0
4:15 am 04:15 Clear with Mist and Fog 37 3 36 2.2 95 95 S 3 6 30.33 1027 2 3.218688 0 0
4:35 am 04:35 Cloudy with Fog 35 1.6 34 0.9 95 95 Calm 30.36 1028 0.25 0.402336 0 0
4:55 am 04:55 Cloudy with Fog 35 1.8 34 1.1 95 95 Calm 30.33 1027 0.25 0.402336 0 0
5:15 am 05:15 Cloudy with Fog 36 2.1 35 1.5 96 96 Calm 30.33 1027 0.25 0.402336 0 0
5:35 am 05:35 Cloudy with Fog 37 2.8 36 2.1 95 95 W 3 6 30.3 1026 0.25 0.402336 0 0
5:55 am 05:55 Cloudy with Fog 37 2.7 36 2.1 96 96 SW 3 6 30.3 1026 0.25 0.402336 0 0
6:15 am 06:15 Cloudy with Fog 37 2.6 36 2 96 96 W 3 6 30.33 1027 0.25 0.402336 0 0
6:35 am 06:35 Cloudy with Fog 36 2 35 1.5 97 97 W 3 6 30.36 1028 0.25 0.402336 0 0
6:55 am 06:55 Cloudy with Fog 35 1.8 34 1.2 96 96 WSW 3 6 30.36 1028 0.25 0.402336 0 0
7:15 am 07:15 Cloudy with Fog 35 1.4 33 0.8 96 96 W 5 7 30.33 1027 0.25 0.402336 0 0
7:35 am 07:35 Cloudy with Fog 34 1.2 33 0.6 96 96 Calm 30.36 1028 0 0 0 0
7:55 am 07:55 Cloudy with Fog 34 1.1 33 0.5 96 96 Calm 30.36 1028 0 0 0 0
8:15 am 08:15 Cloudy with Fog 34 1.3 33 0.7 96 96 W 3 6 30.36 1028 0 0 0 0
8:35 am 08:35 Cloudy with Fog 35 1.6 34 1 96 96 Calm 30.36 1028 0 0 0 0
8:55 am 08:55 Cloudy with Fog 35 1.8 34 1.2 96 96 WNW 5 7 30.36 1028 0 0 0 0
9:15 am 09:15 Cloudy with Fog 36 2.4 35 1.7 95 95 Calm 30.36 1028 0 0 0 0
9:35 am 09:35 Cloudy with Fog 37 2.6 36 2 96 96 Calm 30.36 1028 0.25 0.402336 0 0
9:55 am 09:55 Cloudy with Fog 37 2.9 36 2.3 96 96 Calm 30.36 1028 0 0 0 0
10:15 am 10:15 Cloudy with Fog 38 3.1 37 2.5 96 96 Calm 30.3 1026 0.25 0.402336 0 0
10:35 am 10:35 Cloudy with Fog 39 4 38 3.4 96 96 Calm 30.33 1027 0.25 0.402336 0 0
10:55 am 10:55 Cloudy with Fog 40 4.5 39 3.9 96 96 Calm 30.3 1026 0.25 0.402336 0 0
11:15 am 11:15 Cloudy with Fog 41 4.9 40 4.2 95 95 S 3 6 30.33 1027 0.25 0.402336 0 0
11:35 am 11:35 Cloudy with Mist and Fog 43 6.3 42 5.7 96 96 SSE 6 9 30.3 1026 5 8.04672 0 0
11:55 am 11:55 Cloudy 46 7.7 45 7.1 96 96 SE 6 9 30.3 1026 10 16.09344 0 0
12:15 pm 12:15 Partly Cloudy 49 9.2 47 8.6 96 96 SE 6 9 30.24 1024 10 16.09344 0 0
12:35 pm 12:35 Partly Cloudy 51 10.5 50 9.8 95 95 SE 8 13 30.24 1024 10 16.09344 0 0
12:55 pm 12:55 Sunny 54 12 50 9.9 87 87 SSE 6 9 30.18 1022 10 16.09344 0 0
1:15 pm 13:15 Sunny 57 14.1 51 10.4 79 79 SSW 10 17 30.18 1022 10 16.09344 0 0
1:35 pm 13:35 Sunny 60 15.5 49 9.4 67 67 SSW 10 17 30.15 1021 10 16.09344 0 0
1:55 pm 13:55 Sunny 60 15.8 49 9.4 66 66 S 14 22 30.12 1020 10 16.09344 0 0
2:15 pm 14:15 Sunny 62 16.5 47 8.4 59 59 SSW 12 19 30.12 1020 10 16.09344 0 0
2:35 pm 14:35 Sunny 64 17.6 46 7.8 53 53 SSW 14 22 30.12 1020 10 16.09344 0 0
2:55 pm 14:55 Sunny 65 18.6 46 7.6 49 49 SSW 20 31 30.06 1018 10 16.09344 0 0
3:15 pm 15:15 Sunny 66 19.1 46 7.7 48 48 S 21 33 30.06 1018 10 16.09344 0 0
3:35 pm 15:35 Sunny 67 19.5 44 6.8 44 44 SSW 18 30 30.03 1017 10 16.09344 0 0
3:55 pm 15:55 Sunny 67 19.7 44 6.4 42 42 SSW 21 33 30.03 1017 10 16.09344 0 0
4:15 pm 16:15 Sunny 67 19.6 44 6.8 44 44 SSW 16 26 30.03 1017 10 16.09344 0 0
4:35 pm 16:35 Sunny 68 19.8 44 6.7 43 43 SSW 17 28 30 1016 10 16.09344 0 0
4:55 pm 16:55 Sunny 67 19.5 44 6.7 44 44 SSW 18 30 30 1016 10 16.09344 0 0
5:15 pm 17:15 Sunny 67 19.3 44 6.7 44 44 SSW 21 33 30 1016 10 16.09344 0 0
5:35 pm 17:35 Sunny 66 19 44 6.7 45 45 S 18 30 30 1016 10 16.09344 0 0
5:55 pm 17:55 Sunny 66 18.7 45 7.2 47 47 SSW 20 31 29.97 1015 10 16.09344 0 0
6:15 pm 18:15 Sunny 65 18.5 46 7.5 49 49 SSW 21 33 29.97 1015 10 16.09344 0 0
6:35 pm 18:35 Sunny 65 18.2 47 8.1 52 52 SSW 17 28 29.97 1015 10 16.09344 0 0
6:55 pm 18:55 Sunny 64 18 46 7.9 52 52 SSW 16 26 29.97 1015 10 16.09344 0 0
7:15 pm 19:15 Sunny 64 17.5 47 8.1 54 54 S 15 24 29.97 1015 10 16.09344 0 0
7:35 pm 19:35 Sunny 61 16.2 47 8.1 59 59 S 10 17 30 1016 10 16.09344 0 0
7:55 pm 19:55 Sunny 59 15.2 46 8 62 62 S 9 15 30 1016 10 16.09344 0 0
8:15 pm 20:15 Clear 57 13.7 46 7.8 68 68 S 8 13 30 1016 10 16.09344 0 0
8:35 pm 20:35 Clear 56 13.3 46 7.8 70 70 SSE 9 15 30.03 1017 10 16.09344 0 0
8:55 pm 20:55 Clear 55 13 46 7.6 70 70 SSE 8 13 30.03 1017 10 16.09344 0 0
9:15 pm 21:15 Clear 55 12.7 46 7.7 72 72 S 9 15 30.03 1017 10 16.09344 0 0
9:35 pm 21:35 Clear 56 13.1 46 7.7 70 70 SSE 10 17 30.03 1017 10 16.09344 0 0
9:55 pm 21:55 Clear 55 12.5 46 7.7 73 73 S 10 17 30.03 1017 10 16.09344 0 0
10:15 pm 22:15 Clear 54 12.4 46 7.8 74 74 S 12 19 30.03 1017 10 16.09344 0 0
10:35 pm 22:35 Clear 54 12.1 46 7.7 75 75 S 10 17 30.03 1017 10 16.09344 0 0
10:55 pm 22:55 Clear 54 12.2 46 7.7 74 74 S 14 22 30.03 1017 10 16.09344 0 0
11:15 pm 23:15 Clear 54 12.3 46 7.5 73 73 S 12 19 30.03 1017 10 16.09344 0 0
11:35 pm 23:35 Clear 54 12.2 46 7.5 73 73 S 13 20 30.03 1017 10 16.09344 0 0
11:55 pm 23:55 Clear 54 12 45 7.4 74 74 S 14 22 30.03 1017 10 16.09344 0 0

Powered by AerisWeather